TimeCST,TemperatureF,Dew PointF,Humidity,Sea Level PressureIn,VisibilityMPH,Wind Direction,Wind SpeedMPH,Gust SpeedMPH,PrecipitationIn,Events,Conditions,WindDirDegrees,DateUTC
12:15 AM,36.9,30.7,79,30.04,10.0,WNW,8.1,-,N/A,,Scattered Clouds,290,2012-11-17 06:15:00
12:35 AM,38.3,30.7,74,30.04,10.0,WNW,6.9,-,N/A,,Scattered Clouds,300,2012-11-17 06:35:00
12:55 AM,37.6,30.2,75,30.03,10.0,WNW,8.1,-,N/A,,Mostly Cloudy,290,2012-11-17 06:55:00
1:15 AM,36.1,29.3,76,30.03,10.0,WNW,6.9,-,N/A,,Scattered Clouds,290,2012-11-17 07:15:00
1:35 AM,36.3,29.8,77,30.02,10.0,WNW,9.2,-,N/A,,Mostly Cloudy,290,2012-11-17 07:35:00
1:55 AM,36.7,29.5,75,30.03,10.0,WNW,9.2,-,N/A,,Overcast,290,2012-11-17 07:55:00
2:15 AM,36.5,29.1,75,30.02,10.0,WNW,8.1,-,N/A,,Scattered Clouds,290,2012-11-17 08:15:00
2:35 AM,34.9,28.8,78,30.02,10.0,West,8.1,-,N/A,,Scattered Clouds,280,2012-11-17 08:35:00
2:55 AM,35.4,28.9,77,30.03,10.0,West,10.4,-,N/A,,Scattered Clouds,270,2012-11-17 08:55:00
3:15 AM,38.5,30.0,72,30.03,10.0,WNW,8.1,-,N/A,,Overcast,300,2012-11-17 09:15:00
3:35 AM,40.8,29.3,64,30.04,10.0,WNW,12.7,-,N/A,,Scattered Clouds,300,2012-11-17 09:35:00
3:55 AM,42.1,28.6,59,30.04,10.0,NNW,3.5,-,N/A,,Clear,330,2012-11-17 09:55:00
4:15 AM,40.1,28.9,64,30.04,10.0,NW,3.5,-,N/A,,Scattered Clouds,310,2012-11-17 10:15:00
4:35 AM,39.7,29.8,68,30.04,10.0,NW,8.1,-,N/A,,Scattered Clouds,310,2012-11-17 10:35:00
4:55 AM,39.7,29.3,66,30.05,10.0,NW,5.8,-,N/A,,Clear,320,2012-11-17 10:55:00
5:15 AM,40.3,29.5,65,30.05,10.0,NNW,6.9,-,N/A,,Clear,340,2012-11-17 11:15:00
5:35 AM,42.3,30.0,62,30.05,10.0,NNW,3.5,-,N/A,,Clear,330,2012-11-17 11:35:00
5:55 AM,42.8,31.5,64,30.05,10.0,NW,8.1,-,N/A,,Clear,320,2012-11-17 11:55:00
6:15 AM,43.9,31.6,62,30.04,10.0,NNW,11.5,-,N/A,,Clear,340,2012-11-17 12:15:00
6:35 AM,43.2,31.6,64,30.05,10.0,NW,11.5,-,N/A,,Clear,320,2012-11-17 12:35:00
6:55 AM,44.6,31.8,61,30.06,10.0,NW,9.2,18.4,N/A,,Clear,310,2012-11-17 12:55:00
7:15 AM,43.9,32.0,63,30.06,10.0,NW,9.2,-,N/A,,Clear,310,2012-11-17 13:15:00
7:35 AM,45.7,32.0,59,30.06,10.0,NW,10.4,-,N/A,,Clear,310,2012-11-17 13:35:00
7:55 AM,46.0,32.0,58,30.06,10.0,NW,9.2,18.4,N/A,,Scattered Clouds,310,2012-11-17 13:55:00
8:15 AM,46.8,32.4,57,30.07,10.0,WNW,10.4,-,N/A,,Scattered Clouds,300,2012-11-17 14:15:00
8:35 AM,47.3,32.0,55,30.08,10.0,WNW,10.4,-,N/A,,Clear,300,2012-11-17 14:35:00
8:55 AM,46.6,32.4,58,30.09,10.0,West,10.4,-,N/A,,Clear,280,2012-11-17 14:55:00
9:15 AM,48.9,32.0,52,30.09,10.0,WNW,11.5,-,N/A,,Clear,290,2012-11-17 15:15:00
9:35 AM,50.9,32.2,49,30.09,10.0,WNW,11.5,-,N/A,,Clear,300,2012-11-17 15:35:00
9:55 AM,51.4,32.0,47,30.09,10.0,NW,8.1,-,N/A,,Scattered Clouds,320,2012-11-17 15:55:00
10:15 AM,50.7,32.7,50,30.09,10.0,WNW,8.1,-,N/A,,Scattered Clouds,300,2012-11-17 16:15:00
10:35 AM,52.7,32.0,45,30.09,10.0,NW,9.2,-,N/A,,Clear,320,2012-11-17 16:35:00
11:55 AM,57.9,31.1,36,30.09,10.0,NNW,10.4,-,N/A,,Scattered Clouds,340,2012-11-17 17:55:00
12:15 PM,60.6,30.7,32,30.08,10.0,NW,12.7,17.3,N/A,,Clear,320,2012-11-17 18:15:00
12:35 PM,61.2,30.0,31,30.07,10.0,NW,13.8,20.7,N/A,,Clear,310,2012-11-17 18:35:00
12:55 PM,62.2,29.3,29,30.06,10.0,WNW,10.4,18.4,N/A,,Clear,300,2012-11-17 18:55:00
1:15 PM,62.2,29.8,29,30.06,10.0,NNW,11.5,18.4,N/A,,Clear,330,2012-11-17 19:15:00
1:35 PM,62.8,29.5,29,30.05,10.0,WNW,8.1,-,N/A,,Clear,300,2012-11-17 19:35:00
1:55 PM,62.4,28.9,28,30.05,10.0,West,11.5,-,N/A,,Clear,260,2012-11-17 19:55:00
2:15 PM,61.9,28.8,29,30.04,10.0,West,9.2,-,N/A,,Clear,280,2012-11-17 20:15:00
2:35 PM,62.2,28.8,28,30.04,10.0,SW,5.8,-,N/A,,Clear,230,2012-11-17 20:35:00
2:55 PM,61.9,29.1,29,30.04,10.0,WSW,4.6,-,N/A,,Clear,250,2012-11-17 20:55:00
3:15 PM,62.2,29.1,29,30.04,10.0,SSW,6.9,-,N/A,,Clear,210,2012-11-17 21:15:00
3:35 PM,61.9,29.1,29,30.04,10.0,South,8.1,-,N/A,,Clear,190,2012-11-17 21:35:00
3:55 PM,62.4,28.8,28,30.05,10.0,Calm,Calm,-,N/A,,Scattered Clouds,0,2012-11-17 21:55:00
4:15 PM,61.9,28.6,28,30.05,10.0,South,5.8,-,N/A,,Clear,190,2012-11-17 22:15:00
4:35 PM,59.2,30.6,34,30.05,10.0,South,6.9,-,N/A,,Scattered Clouds,170,2012-11-17 22:35:00
4:55 PM,56.7,32.0,39,30.06,10.0,South,3.5,-,N/A,,Scattered Clouds,180,2012-11-17 22:55:00
5:15 PM,54.5,32.0,42,30.06,10.0,Calm,Calm,-,N/A,,Scattered Clouds,0,2012-11-17 23:15:00
5:35 PM,50.2,32.4,50,30.06,10.0,NNE,4.6,-,N/A,,Clear,30,2012-11-17 23:35:00
5:55 PM,50.4,32.4,50,30.06,10.0,ESE,6.9,-,N/A,,Clear,110,2012-11-17 23:55:00
6:15 PM,50.9,32.0,48,30.07,10.0,East,3.5,-,N/A,,Clear,100,2012-11-18 00:15:00
6:35 PM,47.8,32.2,55,30.07,10.0,SE,5.8,-,N/A,,Clear,130,2012-11-18 00:35:00
6:55 PM,45.5,32.4,60,30.07,10.0,SE,4.6,-,N/A,,Clear,140,2012-11-18 00:55:00
7:15 PM,43.7,32.5,65,30.06,10.0,SE,5.8,-,N/A,,Clear,130,2012-11-18 01:15:00
7:35 PM,41.9,32.0,68,30.06,10.0,ESE,3.5,-,N/A,,Clear,110,2012-11-18 01:35:00
7:55 PM,41.9,32.0,68,30.06,10.0,Calm,Calm,-,N/A,,Clear,0,2012-11-18 01:55:00
8:15 PM,43.3,32.0,64,30.06,10.0,SSE,4.6,-,N/A,,Clear,150,2012-11-18 02:15:00
8:35 PM,41.2,31.8,69,30.06,10.0,Calm,Calm,-,N/A,,Clear,0,2012-11-18 02:35:00
8:55 PM,42.3,32.0,67,30.06,10.0,SSE,5.8,-,N/A,,Clear,150,2012-11-18 02:55:00
9:15 PM,41.5,31.5,67,30.06,10.0,SSE,4.6,-,N/A,,Clear,150,2012-11-18 03:15:00
9:35 PM,41.2,32.0,70,30.06,10.0,South,4.6,-,N/A,,Clear,170,2012-11-18 03:35:00
9:55 PM,40.3,31.1,70,30.06,10.0,SSE,3.5,-,N/A,,Mostly Cloudy,150,2012-11-18 03:55:00
10:15 PM,37.4,31.6,80,30.05,10.0,SSE,3.5,-,N/A,,Overcast,160,2012-11-18 04:15:00
10:35 PM,36.7,30.9,80,30.05,10.0,SSE,5.8,-,N/A,,Scattered Clouds,160,2012-11-18 04:35:00
10:55 PM,36.1,30.0,78,30.05,10.0,SSE,6.9,-,N/A,,Clear,160,2012-11-18 04:55:00
11:15 PM,36.7,30.2,77,30.05,10.0,South,5.8,-,N/A,,Clear,180,2012-11-18 05:15:00
11:35 PM,35.1,29.8,81,30.04,10.0,SSW,5.8,-,N/A,,Clear,210,2012-11-18 05:35:00
11:55 PM,38.3,30.6,74,30.03,10.0,Calm,Calm,-,N/A,,Clear,0,2012-11-18 05:55:00